Location: Sihaung
(22.8641°N, 94.0549°E)
Time: 16:08:46
(UTC+00:00)

Cosmos 2297 Rocket - Pass Details

Date: 03 March 2021
Orbit: 839 x 844 km, 71.0° (Epoch: 12 April)

Event Time Altitude Azimuth Distance (km) Brightness Sun altitude
Rises 22:55:27 0° 173° (S) 3,375 5.4 -16.3°
Reaches altitude 10° 22:58:09 10° 163° (SSE) 2,443 4.8 -15.7°
Maximum altitude 23:02:59 30° 103° (ESE) 1,445 4.2 -14.6°
Drops below altitude 10° 23:07:50 10° 43° (NE) 2,451 5.2 -13.5°
Sets 23:10:31 0° 33° (NNE) 3,388 5.8 -12.9°
